Temp
-11 -10 -10 -11 -11 -11 -10 -10 -10 -10 -11 -11 -10 -9 -9 -10 -10 -9 -9 -9 -10 -10 -11 -11 -11 -11 -11 -11 -11 -11 -11 -11 -11 -10 -10 -10 -10 -11 -11 -11 -11 -11 -11 -11
-10 -10 -11 -12 -11 -11 -11 -10 -10 -10 -11 -11 -10 -8 -9 -10 -10 -10 -10 -10 -10 -10 -10 -11 -11 -11 -11 -11 -11 -11 -11 -11 -11 -10 -10 -10 -10 -11 -11 -11 -11 -11 -11 -11
-10 -10 -11 -11 -11 -11 -11 -11 -11 -11 -11 -11 -10 -6 -8 -9 -9 -10 -10 -10 -10 -10 -10 -10 -11 -11 -11 -11 -11 -11 -11 -11 -11 -10 -10 -10 -11 -11 -11 -11 -11 -11 -12 -12
-10 -11 -11 -11 -11 -13 -10 -12 -11 -11 -11 -10 -10 -5 -6 -8 -9 -10 -10 -10 -10 -10 -10 -11 -11 -11 -11 -11 -11 -11 -11 -11 -10 -10 -10 -11 -11 -11 -11 -11 -12 -11 -11 -12
-11 -11 -12 -12 -12 -12 -12 -12 -12 -12 -12 -11 -10 -11 -6 -8 -8 -9 -10 -10 -10 -11 -11 -11 -11 -11 -11 -11 -11 -11 -10 -10 -10 -11 -11 -11 -11 -12 -11 -12 -12 -12 -12 -12
-11 -12 -12 -12 -13 -13 -13 -13 -13 -13 -13 -12 -10 -11 -6 -8 -9 -9 -10 -10 -10 -10 -11 -11 -11 -11 -11 -11 -11 -11 -10 -10 -10 -11 -11 -12 -12 -12 -12 -12 -12 -12 -12 -12
-12 -12 -12 -13 -13 -13 -13 -14 -14 -14 -14 -12 -11 -12 -9 -10 -10 -10 -10 -10 -10 -10 -10 -11 -11 -11 -11 -11 -10 -11 -11 -11 -11 -11 -12 -13 -12 -12 -12 -12 -12 -12 -12 -12
-13 -12 -14 -14 -14 -14 -14 -14 -14 -15 -14 -14 -13 -12 -11 -11 -10 -10 -10 -10 -11 -12 -11 -11 -12 -11 -11 -12 -12 -11 -11 -11 -11 -12 -12 -13 -12 -12 -13 -13 -13 -13 -13 -13
-15 -14 -14 -15 -16 -16 -15 -15 -15 -15 -15 -15 -14 -13 -12 -10 -10 -11 -11 -12 -13 -13 -14 -13 -12 -12 -11 -14 -13 -13 -13 -13 -13 -13 -13 -12 -12 -13 -13 -13 -13 -13 -13 -13
-16 -16 -14 -15 -16 -16 -16 -16 -16 -16 -16 -16 -15 -14 -13 -11 -11 -12 -12 -12 -12 -14 -14 -14 -14 -13 -13 -14 -15 -15 -14 -14 -13 -13 -13 -13 -13 -13 -13 -13 -13 -13 -13 -14
-17 -19 -17 -16 -15 -16 -16 -16 -17 -17 -17 -17 -17 -16 -12 -12 -12 -11 -12 -14 -15 -15 -15 -15 -15 -14 -14 -14 -15 -15 -15 -15 -14 -14 -14 -14 -14 -14 -14 -14 -14 -14 -14 -14
-17 -18 -19 -19 -17 -18 -17 -17 -16 -17 -16 -17 -18 -17 -13 -13 -13 -13 -13 -15 -15 -16 -17 -17 -17 -16 -16 -15 -16 -16 -16 -15 -14 -14 -14 -14 -14 -15 -15 -14 -15 -15 -15 -15
-18 -19 -19 -20 -18 -17 -18 -17 -18 -18 -18 -18 -18 -16 -14 -15 -14 -14 -15 -16 -16 -17 -17 -17 -17 -17 -17 -17 -17 -17 -16 -15 -14 -14 -14 -14 -15 -15 -15 -15 -15 -15 -16 -15
-20 -20 -20 -19 -19 -19 -19 -18 -18 -18 -19 -16 -17 -15 -15 -15 -15 -15 -16 -17 -17 -17 -17 -17 -17 -17 -17 -17 -17 -16 -15 -15 -14 -14 -15 -15 -16 -16 -16 -16 -17 -16 -16 -16
-20 -20 -20 -21 -20 -20 -19 -19 -18 -19 -18 -19 -17 -18 -16 -15 -15 -16 -17 -17 -18 -18 -18 -17 -17 -17 -17 -17 -16 -16 -16 -15 -15 -15 -16 -15 -16 -16 -17 -17 -17 -17 -17 -17
-21 -21 -21 -22 -22 -21 -21 -20 -20 -19 -19 -20 -20 -20 -18 -18 -17 -17 -17 -18 -18 -18 -17 -17 -17 -17 -16 -16 -16 -16 -15 -15 -15 -15 -16 -16 -17 -17 -18 -17 -17 -17 -17 -18
-22 -22 -21 -21 -21 -23 -21 -21 -20 -20 -21 -21 -22 -21 -21 -20 -19 -18 -18 -18 -18 -17 -17 -16 -17 -17 -17 -18 -17 -17 -16 -16 -16 -17 -17 -17 -17 -17 -17 -18 -18 -18 -18 -18
-23 -23 -23 -23 -23 -23 -21 -21 -21 -20 -21 -21 -21 -21 -21 -21 -20 -20 -19 -19 -16 -16 -16 -17 -18 -17 -17 -18 -17 -17 -16 -16 -17 -17 -17 -17 -18 -18 -18 -19 -19 -19 -19 -19
-24 -24 -24 -24 -23 -22 -21 -21 -21 -21 -21 -22 -22 -22 -22 -21 -20 -20 -20 -20 -19 -19 -19 -19 -19 -19 -18 -19 -17 -17 -17 -17 -17 -17 -17 -18 -18 -18 -19 -19 -19 -20 -20 -20
-25 -25 -25 -25 -25 -24 -23 -22 -22 -22 -22 -22 -22 -22 -22 -22 -21 -20 -20 -21 -20 -20 -20 -20 -20 -20 -19 -19 -19 -19 -18 -18 -19 -19 -18 -19 -19 -19 -20 -21 -21 -20 -20 -21
-26 -26 -25 -25 -25 -25 -24 -24 -23 -23 -22 -22 -21 -22 -22 -22 -22 -21 -21 -21 -21 -21 -20 -20 -20 -20 -20 -20 -20 -20 -20 -20 -20 -19 -20 -20 -20 -20 -21 -21 -21 -21 -21 -22
-27 -27 -27 -27 -26 -26 -25 -25 -25 -24 -24 -24 -24 -23 -22 -24 -23 -22 -22 -22 -21 -21 -22 -21 -21 -20 -20 -20 -21 -20 -20 -20 -21 -22 -21 -20 -21 -21 -22 -22 -22 -21 -21 -22
-29 -29 -28 -28 -27 -27 -27 -27 -27 -26 -25 -25 -25 -24 -24 -24 -24 -23 -22 -23 -23 -22 -22 -22 -23 -22 -21 -21 -21 -20 -20 -21 -22 -21 -21 -21 -22 -22 -22 -22 -23 -23 -22 -22
-29 -29 -30 -29 -29 -29 -29 -29 -30 -29 -29 -28 -28 -27 -27 -26 -25 -24 -24 -23 -24 -23 -23 -23 -23 -22 -22 -21 -22 -22 -21 -22 -22 -22 -22 -22 -22 -22 -22 -22 -23 -23 -23 -22
-29 -29 -30 -30 -31 -32 -30 -30 -31 -30 -31 -30 -29 -28 -27 -27 -26 -26 -25 -25 -24 -25 -24 -24 -23 -22 -22 -22 -22 -23 -22 -23 -23 -23 -23 -22 -22 -22 -22 -23 -22 -22 -22 -22
-31 -33 -33 -33 -33 -33 -31 -31 -32 -31 -31 -31 -31 -30 -30 -29 -28 -27 -26 -25 -25 -25 -25 -24 -24 -23 -22 -23 -23 -23 -23 -23 -23 -23 -22 -23 -23 -23 -23 -23 -22 -23 -23 -22
Height
5805 5800 5805 5810 5803 5800 5794 5791 5789 5795 5799 5785 5781 5773 5779 5789 5790 5792 5791 5790 5789 5787 5789 5784 5782 5779 5780 5779 5777 5776 5774 5774 5772 5771 5771 5771 5770 5768 5768 5767 5766 5765 5765 5764
5797 5789 5800 5795 5793 5789 5786 5784 5781 5780 5786 5774 5767 5761 5762 5768 5775 5780 5781 5780 5778 5776 5776 5774 5770 5767 5768 5767 5767 5766 5765 5764 5763 5762 5761 5760 5758 5757 5758 5756 5756 5755 5754 5752
5785 5783 5785 5783 5781 5780 5779 5772 5773 5766 5768 5762 5756 5745 5753 5753 5761 5768 5769 5769 5768 5765 5764 5763 5759 5756 5756 5756 5754 5753 5753 5752 5751 5750 5749 5748 5747 5747 5747 5746 5745 5744 5742 5741
5772 5780 5775 5771 5768 5771 5762 5768 5761 5757 5752 5746 5750 5728 5741 5747 5748 5754 5755 5754 5754 5754 5753 5752 5748 5745 5743 5742 5741 5741 5740 5740 5739 5737 5736 5736 5736 5737 5736 5735 5734 5732 5732 5729
5764 5764 5762 5760 5762 5754 5753 5751 5749 5748 5743 5737 5733 5727 5730 5737 5737 5740 5744 5746 5745 5742 5741 5741 5736 5732 5729 5729 5728 5728 5727 5726 5725 5724 5724 5724 5724 5725 5724 5723 5722 5721 5721 5720
5750 5750 5747 5748 5745 5744 5741 5736 5733 5731 5728 5721 5733 5724 5706 5726 5721 5722 5724 5731 5730 5734 5730 5727 5725 5720 5715 5714 5714 5715 5713 5712 5711 5711 5710 5711 5712 5712 5712 5712 5712 5712 5711 5709
5735 5734 5733 5732 5729 5730 5729 5725 5716 5709 5708 5710 5725 5707 5711 5712 5718 5712 5709 5709 5711 5713 5715 5709 5708 5708 5704 5700 5700 5700 5700 5700 5698 5697 5697 5698 5698 5699 5701 5701 5701 5700 5700 5698
5711 5716 5721 5723 5718 5715 5715 5710 5702 5691 5695 5695 5699 5691 5704 5709 5702 5697 5695 5694 5691 5691 5695 5694 5691 5688 5688 5687 5687 5687 5687 5687 5686 5685 5686 5686 5687 5688 5688 5689 5688 5687 5686 5685
5696 5694 5700 5699 5699 5698 5699 5694 5696 5677 5674 5667 5677 5685 5688 5698 5691 5687 5682 5677 5675 5674 5675 5679 5678 5677 5674 5673 5674 5675 5676 5674 5674 5674 5673 5675 5675 5675 5675 5674 5674 5673 5671 5670
5676 5665 5683 5681 5681 5683 5679 5680 5674 5666 5652 5650 5650 5662 5675 5687 5677 5672 5665 5660 5660 5661 5660 5660 5661 5661 5662 5659 5659 5662 5663 5664 5663 5662 5663 5662 5663 5662 5660 5659 5659 5658 5657 5655
5656 5647 5651 5658 5666 5664 5658 5652 5654 5649 5642 5631 5625 5632 5670 5665 5658 5653 5647 5649 5647 5647 5646 5648 5649 5650 5650 5647 5647 5646 5648 5649 5650 5650 5649 5649 5649 5648 5647 5647 5644 5643 5641 5639
5642 5628 5620 5628 5646 5645 5638 5636 5636 5624 5625 5618 5608 5604 5649 5647 5641 5639 5634 5631 5634 5634 5634 5633 5632 5632 5632 5633 5631 5631 5631 5633 5633 5635 5634 5635 5635 5634 5632 5631 5629 5628 5626 5625
5627 5610 5602 5598 5613 5628 5617 5626 5619 5613 5604 5592 5587 5592 5630 5627 5625 5619 5617 5613 5616 5614 5613 5610 5611 5609 5612 5613 5613 5613 5614 5616 5615 5616 5616 5618 5619 5617 5616 5615 5614 5612 5610 5609
5602 5591 5586 5580 5590 5594 5594 5600 5599 5593 5581 5578 5570 5578 5604 5612 5610 5607 5600 5595 5596 5596 5593 5589 5586 5587 5590 5593 5591 5594 5598 5598 5597 5598 5600 5600 5600 5600 5598 5597 5597 5596 5595 5593
5583 5571 5570 5567 5571 5574 5571 5573 5575 5568 5565 5552 5558 5557 5574 5590 5598 5591 5581 5581 5576 5574 5572 5569 5566 5566 5569 5569 5574 5579 5582 5580 5578 5579 5582 5583 5582 5580 5580 5581 5579 5578 5577 5575
5566 5557 5553 5548 5551 5550 5546 5552 5549 5548 5548 5540 5538 5535 5555 5561 5565 5561 5560 5554 5546 5547 5547 5554 5555 5551 5553 5552 5550 5555 5558 5560 5560 5562 5563 5562 5564 5563 5563 5562 5560 5559 5558 5557
5542 5543 5537 5523 5533 5528 5521 5532 5534 5527 5528 5525 5515 5520 5522 5522 5527 5538 5533 5523 5522 5528 5530 5536 5537 5539 5538 5536 5533 5535 5541 5542 5542 5544 5546 5546 5546 5546 5545 5543 5541 5540 5539 5537
5521 5522 5518 5505 5512 5497 5510 5516 5511 5507 5511 5503 5491 5491 5494 5498 5509 5512 5507 5503 5505 5508 5512 5516 5516 5516 5519 5518 5518 5520 5522 5522 5524 5525 5526 5526 5526 5524 5523 5522 5521 5520 5519 5516
5501 5498 5488 5486 5486 5480 5488 5491 5492 5490 5489 5474 5472 5471 5474 5478 5485 5484 5486 5486 5485 5486 5487 5491 5493 5493 5496 5497 5501 5502 5506 5504 5504 5504 5504 5504 5503 5502 5501 5498 5498 5498 5497 5496
5483 5475 5472 5469 5465 5466 5462 5469 5470 5469 5459 5450 5448 5447 5448 5450 5456 5468 5467 5469 5470 5470 5469 5469 5471 5474 5474 5477 5480 5481 5483 5483 5484 5482 5483 5483 5483 5483 5482 5479 5478 5479 5479 5478
5454 5452 5445 5443 5437 5441 5444 5447 5451 5442 5435 5441 5432 5424 5421 5422 5422 5434 5437 5443 5446 5448 5450 5451 5452 5454 5455 5454 5457 5459 5460 5461 5459 5459 5460 5460 5461 5461 5462 5461 5460 5462 5462 5462
5422 5420 5419 5415 5413 5415 5426 5413 5417 5408 5408 5412 5413 5408 5402 5402 5407 5408 5412 5417 5420 5425 5429 5427 5431 5434 5434 5434 5435 5437 5437 5436 5437 5440 5443 5443 5443 5442 5443 5443 5441 5442 5443 5444
5399 5397 5391 5391 5389 5398 5395 5384 5381 5380 5381 5378 5376 5383 5380 5380 5381 5384 5387 5388 5392 5396 5401 5405 5405 5410 5413 5412 5412 5416 5415 5415 5417 5420 5423 5423 5423 5425 5425 5427 5426 5425 5424 5425
5379 5383 5371 5370 5373 5367 5366 5365 5360 5356 5354 5354 5351 5353 5352 5348 5353 5355 5360 5367 5369 5371 5375 5375 5378 5383 5389 5386 5388 5395 5396 5394 5395 5397 5400 5402 5403 5405 5405 5406 5407 5405 5405 5405
5362 5359 5354 5344 5348 5341 5346 5346 5333 5331 5330 5330 5330 5327 5326 5320 5326 5325 5334 5339 5341 5346 5349 5350 5351 5357 5362 5363 5366 5368 5369 5370 5370 5374 5377 5380 5382 5384 5385 5384 5385 5384 5383 5385
5347 5337 5331 5324 5326 5319 5324 5322 5312 5310 5307 5304 5302 5302 5301 5295 5297 5299 5304 5308 5308 5312 5315 5320 5326 5330 5333 5336 5339 5345 5345 5343 5344 5348 5352 5357 5360 5361 5364 5365 5365 5364 5364 5362
Wind_Speed
47 49 43 36 42 46 50 52 52 45 40 51 52 56 51 44 45 41 39 37 36 33 29 37 40 42 42 42 42 41 42 41 41 42 41 41 43 46 40 37 35 34 34 35
48 52 42 44 43 45 49 52 53 51 44 53 56 58 60 56 49 43 41 42 40 38 32 33 37 41 40 40 40 40 40 40 42 42 43 45 48 45 34 33 33 35 36 36
49 51 47 47 48 49 49 53 51 55 52 55 58 53 56 58 50 41 39 38 40 40 37 37 40 42 41 42 42 41 42 43 44 45 47 50 47 37 33 34 35 36 34 34
50 37 41 44 46 39 52 43 50 54 57 61 56 61 55 55 54 47 42 40 39 39 40 38 43 46 46 44 44 45 47 47 47 48 46 42 40 38 37 37 35 35 34 35
53 52 52 52 49 51 53 52 53 55 60 65 66 67 61 58 60 54 50 40 40 38 37 39 45 48 51 50 49 48 49 48 46 44 45 44 43 40 36 33 35 34 35 36
60 56 58 53 49 48 51 53 55 57 60 67 61 66 69 61 67 68 64 55 53 47 44 43 44 49 50 51 49 46 46 47 46 49 49 47 41 36 35 35 35 37 37 38
58 57 56 55 54 54 52 53 58 64 64 67 56 67 62 62 60 65 70 65 58 51 47 47 43 47 47 47 47 43 43 45 48 49 46 40 37 37 37 37 37 38 39 40
70 68 53 52 54 54 56 58 62 67 64 63 60 65 54 49 57 64 64 66 66 61 55 52 48 37 39 42 42 43 46 49 53 51 48 44 42 41 41 39 40 43 44 46
66 72 65 61 57 56 59 59 55 63 65 71 67 61 56 48 53 59 67 68 63 53 33 32 30 39 40 34 36 38 41 48 49 48 49 46 44 45 44 43 45 47 50 52
70 75 68 66 66 62 62 60 62 66 72 73 73 66 54 43 52 58 65 68 65 57 53 32 32 38 42 36 35 38 43 47 51 52 52 52 47 47 50 51 51 53 55 57
80 75 79 77 76 68 63 64 65 67 68 74 77 71 43 50 52 59 62 59 59 58 39 28 32 39 43 45 44 53 52 53 54 56 54 53 51 51 53 53 55 56 56 57
70 74 77 74 72 67 71 70 72 74 73 66 65 66 46 55 61 58 59 63 58 50 39 46 45 49 59 61 63 59 56 56 56 53 58 58 58 55 56 57 57 56 54 54
63 72 75 78 74 67 71 66 71 77 76 79 79 72 45 43 51 58 53 48 50 48 49 51 57 57 58 63 65 68 63 59 56 54 57 56 54 56 58 56 54 50 49 52
57 66 74 80 75 71 72 68 68 74 79 85 92 87 67 51 51 53 40 26 33 43 49 50 58 61 58 62 66 57 56 57 59 57 58 58 56 55 53 52 48 49 51 54
54 64 70 71 70 70 75 76 75 78 85 92 87 84 76 68 53 46 49 42 54 47 44 44 40 42 44 53 53 52 55 53 55 56 58 60 58 55 55 54 52 52 54 57
58 66 64 64 61 66 67 61 65 75 82 87 82 80 69 60 63 58 64 72 63 56 58 54 49 51 47 49 48 47 52 57 62 63 63 63 59 57 55 55 57 59 59 62
76 77 76 76 78 78 64 56 53 56 55 57 69 72 72 76 74 68 68 80 84 79 74 75 69 67 63 54 56 52 52 56 60 59 59 60 61 60 60 60 62 64 65 66
78 80 84 93 87 85 73 70 60 52 46 54 57 60 53 53 57 59 67 71 79 79 76 72 71 73 71 70 68 68 67 63 58 60 62 63 61 63 64 65 66 67 67 66
69 71 79 84 84 85 84 77 82 75 73 74 68 69 64 60 54 56 62 72 73 72 77 75 72 73 73 67 76 78 79 74 75 77 76 69 67 69 67 67 67 68 68 65
69 72 74 76 80 71 63 60 43 44 57 63 73 75 77 77 71 69 69 69 69 71 70 67 69 71 73 76 77 79 77 78 78 76 76 76 74 69 65 67 70 70 68 63
74 73 76 79 83 86 95 93 70 69 75 61 61 72 74 76 75 69 70 58 62 73 73 76 76 72 74 74 75 76 76 73 71 73 73 69 67 68 68 69 70 70 67 63
71 71 71 75 81 85 83 90 94 105 101 96 93 86 71 81 70 76 81 78 81 79 72 69 77 83 82 73 76 76 74 72 68 65 65 66 69 66 68 68 70 72 70 63
66 66 70 72 75 73 76 77 81 84 89 93 99 105 112 108 105 100 83 84 97 94 88 81 81 73 77 78 74 74 77 79 69 64 62 63 67 69 62 66 70 72 70 68
64 59 65 67 68 72 75 75 77 79 76 77 80 84 83 87 86 91 99 88 82 93 84 82 85 85 72 75 70 72 79 77 71 66 61 60 69 73 74 71 72 75 73 72
61 61 60 64 61 63 68 70 77 80 83 84 84 86 88 90 87 90 89 92 99 93 88 86 88 80 69 74 72 75 81 74 69 75 63 63 73 70 72 67 70 73 76 74
55 57 57 57 54 56 58 61 65 70 76 81 86 91 95 100 100 97 99 99 88 81 83 98 96 83 75 75 73 76 87 87 80 82 79 68 70 80 80 73 75 73 75 70
Wind_Direction
275 274 280 288 280 280 280 280 283 287 289 284 281 280 280 275 272 280 281 277 280 282 280 273 273 271 271 272 273 274 273 275 272 273 274 276 280 281 280 276 277 278 279 283
275 275 282 277 276 276 278 283 281 281 284 276 280 281 282 282 280 277 277 282 284 277 280 278 274 271 273 271 271 272 272 271 273 274 274 277 276 276 275 275 276 281 284 282
268 273 275 275 273 274 276 276 283 279 277 272 275 278 281 279 284 282 279 278 274 274 274 274 274 276 273 275 274 272 272 272 272 274 274 273 271 273 273 273 278 280 279 278
271 272 274 272 273 279 271 278 273 275 276 277 273 280 275 282 282 287 285 276 273 271 274 271 272 274 273 270 268 270 272 272 273 271 270 270 270 274 275 275 274 274 275 277
276 276 274 271 275 272 274 271 272 271 272 273 273 277 285 287 290 289 285 284 277 275 275 271 270 270 271 272 271 271 273 272 269 266 263 265 268 269 268 267 269 268 272 275
276 276 274 276 275 273 273 273 273 271 269 267 275 282 284 284 285 291 293 288 285 285 280 276 272 267 269 270 271 271 266 261 260 262 266 269 268 266 265 266 265 266 268 269
270 272 275 274 275 278 280 277 275 273 272 275 279 276 279 291 294 290 292 290 288 287 281 284 275 269 268 265 265 261 261 261 262 263 264 264 263 265 267 269 266 268 271 269
283 280 277 279 277 277 276 276 276 277 281 280 273 273 286 289 290 289 287 287 287 288 284 280 284 272 264 253 249 249 257 260 260 261 263 266 267 268 270 270 270 272 273 270
279 276 277 278 279 277 279 276 279 278 280 277 279 280 281 291 288 283 284 284 286 289 288 288 258 270 260 249 247 252 254 251 254 257 260 262 265 271 272 270 271 271 271 272
284 284 277 276 281 281 281 280 276 277 279 279 281 277 278 284 287 282 278 277 279 287 287 278 255 247 237 246 254 256 256 252 250 255 259 264 266 269 272 273 274 273 273 275
286 284 283 280 282 285 279 275 277 278 271 274 274 273 281 276 268 274 275 281 284 283 274 256 247 239 247 248 254 264 266 258 258 257 257 258 263 267 267 272 274 274 274 275
282 277 276 280 279 276 272 275 280 277 277 275 274 269 290 277 267 268 269 279 279 280 246 260 246 243 261 247 255 255 261 260 259 259 258 258 264 264 269 273 274 274 273 273
279 273 274 274 275 275 272 277 273 275 273 269 272 276 276 274 267 267 269 270 275 273 272 270 268 260 246 243 248 257 266 266 268 265 261 262 260 264 268 268 267 268 270 272
265 265 266 269 274 275 271 269 269 267 265 274 274 281 274 271 281 262 264 261 279 277 265 257 257 261 261 257 263 262 263 269 269 265 264 263 261 263 261 260 265 271 275 279
267 269 269 269 272 272 274 272 268 260 266 271 275 278 279 278 270 257 258 261 276 264 262 254 252 257 263 265 267 267 264 262 267 269 266 263 262 256 259 263 272 282 284 283
263 273 273 276 283 279 277 274 271 268 268 271 274 273 276 265 251 254 265 272 268 255 252 255 259 260 257 262 262 259 260 263 266 267 261 260 256 257 265 272 279 283 285 281
266 268 263 266 276 279 267 273 273 277 269 273 273 272 271 265 259 257 253 256 261 265 265 268 264 265 269 264 269 272 270 264 261 261 260 258 258 262 268 275 281 280 279 279
267 265 263 266 271 268 267 269 268 265 269 263 266 267 263 261 253 251 251 252 254 261 267 265 259 259 260 264 269 273 275 273 268 266 266 268 270 272 276 281 281 278 278 281
272 269 268 266 266 264 269 271 270 268 273 271 267 266 262 257 251 249 253 252 253 255 255 257 259 262 261 269 272 271 270 271 271 269 267 265 267 272 280 282 283 281 282 285
271 270 268 267 263 269 272 265 260 262 258 268 276 270 270 271 266 261 259 264 259 259 260 262 261 261 264 266 265 264 266 265 267 265 267 267 269 275 279 277 277 279 282 283
275 270 265 265 263 258 257 255 250 258 255 265 255 254 261 260 263 272 262 265 266 262 259 262 263 263 261 262 261 258 257 260 263 266 269 272 275 279 277 277 276 276 276 278
277 274 270 267 265 264 263 263 262 261 264 264 257 259 261 268 266 263 265 266 271 267 258 262 269 267 259 259 260 262 260 259 260 266 271 278 282 276 275 276 277 279 276 274
274 274 273 270 269 268 268 268 268 267 266 264 264 264 266 269 269 268 265 268 266 265 264 265 271 264 257 255 255 260 267 269 267 268 274 274 273 270 270 271 272 274 273 270
275 275 272 273 270 269 268 266 268 268 264 264 265 267 266 266 265 263 261 266 266 263 261 269 269 266 247 249 251 260 264 261 262 264 271 268 268 267 268 270 266 266 268 270
283 282 279 271 271 267 265 267 267 264 262 262 260 260 259 259 259 260 259 257 258 260 262 262 261 244 249 251 258 264 265 257 259 258 264 266 262 259 265 265 268 267 269 265
285 285 287 288 284 283 276 269 268 266 265 265 263 261 261 262 261 260 258 257 254 254 262 266 257 238 239 247 249 257 260 255 256 254 251 260 267 266 265 263 261 262 259 257